| time (UTC) | temp C | wind direction | speed KPH | gust KPH | rain 1hr cm | rain 24hr cm | rain mn cm | humidity % | barometer mb |
| 20260507133817 | 12 | 262 | 6.4 | 9.7 | 0.00 | 0.00 | 0.00 | 46 | 1012.5 |
| 20260507132317 | 11 | 262 | 9.7 | 12.9 | 0.00 | 0.00 | 0.00 | 47 | 1012.6 |
| 20260507130817 | 11 | 262 | 3.2 | 8.0 | 0.00 | 0.00 | 0.00 | 53 | 1012.6 |
| 20260507125317 | 11 | 262 | 0.0 | 8.0 | 0.00 | 0.00 | 0.00 | 51 | 1012.7 |
| 20260507123817 | 11 | 262 | 0.0 | 4.8 | 0.00 | 0.00 | 0.00 | 56 | 1012.8 |
| 20260507122317 | 9 | 262 | 0.0 | 16.1 | 0.00 | 0.00 | 0.00 | 57 | 1013.0 |
| 20260507120817 | 9 | 262 | 0.0 | 16.1 | 0.00 | 0.00 | 0.00 | 57 | 1012.9 |
| 20260507115317 | 9 | 262 | 0.0 | 16.1 | 0.00 | 0.00 | 0.00 | 57 | 1012.9 |
| 20260507113818 | 9 | 262 | 0.0 | 16.1 | 0.00 | 0.00 | 0.00 | 57 | 1012.9 |
| 20260507112318 | 9 | 262 | 0.0 | 16.1 | 0.00 | 0.00 | 0.00 | 57 | 1012.7 |
| 20260507110818 | 9 | 262 | 0.0 | 16.1 | 0.00 | 0.00 | 0.00 | 57 | 1012.4 |
| 20260507105318 | 9 | 262 | 0.0 | 16.1 | 0.00 | 0.00 | 0.00 | 57 | 1012.3 |
| 20260507103819 | 9 | 262 | 0.0 | 16.1 | 0.00 | 0.00 | 0.00 | 57 | 1012.1 |
| 20260507102318 | 9 | 262 | 0.0 | 16.1 | 0.00 | 0.00 | 0.00 | 57 | 1012.0 |
| 20260507100818 | 9 | 262 | 0.0 | 16.1 | 0.00 | 0.00 | 0.00 | 57 | 1011.9 |
| 20260507095318 | 9 | 262 | 0.0 | 16.1 | 0.00 | 0.00 | 0.00 | 57 | 1011.8 |
| 20260507093818 | 9 | 262 | 0.0 | 16.1 | 0.00 | 0.00 | 0.00 | 57 | 1011.7 |
| 20260507092318 | 9 | 262 | 0.0 | 16.1 | 0.00 | 0.00 | 0.00 | 57 | 1011.6 |
| 20260507090818 | 9 | 262 | 0.0 | 16.1 | 0.00 | 0.00 | 0.00 | 57 | 1011.5 |
| 20260507085318 | 9 | 262 | 0.0 | 16.1 | 0.00 | 0.00 | 0.00 | 57 | 1011.4 |
| 20260507083818 | 9 | 340 | 1.6 | 16.1 | 0.00 | 0.00 | 0.00 | 58 | 1011.2 |
| 20260507082318 | 9 | 30 | 0.0 | 6.4 | 0.00 | 0.00 | 0.00 | 59 | 1011.4 |
| 20260507080818 | 8 | 8 | 6.4 | 6.4 | 0.00 | 0.00 | 0.00 | 61 | 1011.4 |
| 20260507075318 | 9 | 86 | 3.2 | 4.8 | 0.00 | 0.00 | 0.00 | 61 | 1011.4 |
| 20260507073818 | 9 | 316 | 0.0 | 3.2 | 0.00 | 0.00 | 0.00 | 61 | 1011.5 |
| 20260507072318 | 9 | 302 | 0.0 | 3.2 | 0.00 | 0.00 | 0.00 | 63 | 1011.5 |
| 20260507070818 | 8 | 224 | 0.0 | 1.6 | 0.00 | 0.00 | 0.00 | 66 | 1011.6 |
| 20260507065318 | 9 | 231 | 0.0 | 1.6 | 0.00 | 0.00 | 0.00 | 70 | 1011.8 |
| 20260507063818 | 9 | 229 | 0.0 | 3.2 | 0.00 | 0.00 | 0.00 | 66 | 1011.8 |
| 20260507062318 | 10 | 126 | 3.2 | 4.8 | 0.00 | 0.00 | 0.00 | 66 | 1011.7 |
| 20260507060820 | 10 | 21 | 0.0 | 4.8 | 0.00 | 0.00 | 0.00 | 63 | 1011.6 |
| 20260507055318 | 10 | 15 | 0.0 | 4.8 | 0.00 | 0.00 | 0.00 | 62 | 1011.8 |
| 20260507053818 | 10 | 316 | 0.0 | 0.0 | 0.00 | 0.00 | 0.00 | 66 | 1011.7 |
| 20260507052318 | 10 | 335 | 0.0 | 4.8 | 0.00 | 0.00 | 0.00 | 66 | 1011.9 |
| 20260507050818 | 10 | 15 | 0.0 | 1.6 | 0.00 | 0.00 | 0.00 | 69 | 1011.9 |
| 20260507045318 | 10 | 321 | 1.6 | 9.7 | 0.00 | 0.00 | 0.00 | 68 | 1011.9 |
| 20260507043818 | 11 | 244 | 1.6 | 3.2 | 0.00 | 0.00 | 0.00 | 69 | 1011.9 |
| 20260507042318 | 11 | 23 | 4.8 | 6.4 | 0.00 | 0.00 | 0.00 | 69 | 1011.8 |
| 20260507040818 | 11 | 300 | 1.6 | 3.2 | 0.00 | 0.00 | 0.00 | 70 | 1011.9 |
| 20260507035318 | 11 | 197 | 1.6 | 11.3 | 0.00 | 0.00 | 0.48 | 69 | 1011.5 |
| 20260507033818 | 12 | 155 | 1.6 | 16.1 | 0.00 | 0.00 | 0.48 | 68 | 1011.5 |
| 20260507032318 | 12 | 34 | 1.6 | 9.7 | 0.00 | 0.00 | 0.48 | 69 | 1011.5 |
| 20260507030818 | 11 | 314 | 3.2 | 4.8 | 0.00 | 0.00 | 0.48 | 72 | 1011.4 |
| 20260507025319 | 12 | 244 | 0.0 | 3.2 | 0.00 | 0.00 | 0.48 | 74 | 1011.3 |
| 20260507023819 | 12 | 232 | 0.0 | 3.2 | 0.00 | 0.00 | 0.48 | 74 | 1011.0 |
| 20260507022319 | 12 | 353 | 1.6 | 3.2 | 0.00 | 0.00 | 0.48 | 73 | 1010.4 |
| 20260507020819 | 12 | 104 | 0.0 | 6.4 | 0.00 | 0.00 | 0.48 | 73 | 1010.6 |
| 20260507015319 | 12 | 304 | 1.6 | 1.6 | 0.00 | 0.00 | 0.48 | 78 | 1010.8 |
| 20260507013819 | 12 | 314 | 0.0 | 4.8 | 0.00 | 0.00 | 0.48 | 79 | 1010.7 |
| 20260507012319 | 12 | 359 | 0.0 | 4.8 | 0.00 | 0.00 | 0.48 | 80 | 1010.6 |
| 20260507010819 | 12 | 271 | 0.0 | 1.6 | 0.00 | 0.00 | 0.48 | 80 | 1011.0 |
| 20260507005319 | 12 | 236 | 0.0 | 4.8 | 0.00 | 0.00 | 0.48 | 80 | 1011.3 |
| 20260507003819 | 12 | 245 | 0.0 | 12.9 | 0.00 | 0.00 | 0.48 | 77 | 1010.8 |
| 20260507002319 | 12 | 347 | 1.6 | 8.0 | 0.00 | 0.00 | 0.48 | 76 | 1010.8 |
| 20260507000819 | 13 | 20 | 8.0 | 12.9 | 0.00 | 0.00 | 0.48 | 76 | 1010.6 |
| 20260506235319 | 13 | 347 | 3.2 | 14.5 | 0.00 | 0.00 | 0.48 | 76 | 1010.1 |
| 20260506233819 | 13 | 27 | 4.8 | 11.3 | 0.00 | 0.00 | 0.48 | 78 | 1009.7 |
| 20260506232319 | 13 | 32 | 4.8 | 4.8 | 0.00 | 0.00 | 0.48 | 79 | 1009.3 |
| 20260506230819 | 13 | 255 | 0.0 | 9.7 | 0.00 | 0.00 | 0.48 | 79 | 1009.1 |
| 20260506225319 | 13 | 56 | 1.6 | 16.1 | 0.00 | 0.00 | 0.48 | 78 | 1009.1 |
| 20260506223819 | 14 | 26 | 9.7 | 16.1 | 0.00 | 0.00 | 0.48 | 77 | 1009.0 |
| 20260506222319 | 14 | 216 | 0.0 | 3.2 | 0.00 | 0.00 | 0.48 | 78 | 1008.7 |
| 20260506220819 | 15 | 166 | 0.0 | 3.2 | 0.00 | 0.00 | 0.48 | 79 | 1008.6 |
| 20260506215319 | 15 | 357 | 0.0 | 8.0 | 0.00 | 0.00 | 0.48 | 76 | 1008.5 |
| 20260506213819 | 15 | 225 | 0.0 | 6.4 | 0.00 | 0.00 | 0.48 | 75 | 1007.9 |
| 20260506212319 | 15 | 211 | 1.6 | 11.3 | 0.00 | 0.00 | 0.48 | 75 | 1008.0 |
| 20260506210819 | 16 | 357 | 1.6 | 9.7 | 0.00 | 0.00 | 0.48 | 77 | 1007.7 |
| 20260506205319 | 16 | 302 | 8.0 | 14.5 | 0.00 | 0.00 | 0.48 | 77 | 1007.2 |
| 20260506203819 | 16 | 34 | 11.3 | 14.5 | 0.00 | 0.00 | 0.48 | 80 | 1007.2 |
| 20260506202319 | 16 | 194 | 3.2 | 6.4 | 0.00 | 0.00 | 0.48 | 81 | 1006.9 |
| 20260506200819 | 17 | 182 | 1.6 | 8.0 | 0.00 | 0.00 | 0.48 | 80 | 1006.9 |
| 20260506195319 | 17 | 153 | 3.2 | 6.4 | 0.00 | 0.00 | 0.48 | 78 | 1006.6 |
| 20260506193819 | 18 | 72 | 1.6 | 4.8 | 0.00 | 0.00 | 0.48 | 79 | 1006.1 |
| 20260506192319 | 18 | 217 | 1.6 | 6.4 | 0.00 | 0.00 | 0.48 | 81 | 1006.1 |
| 20260506190819 | 17 | 224 | 1.6 | 6.4 | 0.00 | 0.00 | 0.48 | 85 | 1006.2 |
| 20260506185319 | 17 | 95 | 0.0 | 6.4 | 0.00 | 0.00 | 0.48 | 88 | 1006.2 |
| 20260506183820 | 16 | 60 | 0.0 | 16.1 | 0.00 | 0.00 | 0.48 | 91 | 1006.0 |
| 20260506182320 | 16 | 315 | 0.0 | 3.2 | 0.00 | 0.00 | 0.48 | 92 | 1005.9 |
| 20260506180820 | 16 | 96 | 0.0 | 1.6 | 0.00 | 0.00 | 0.48 | 91 | 1006.0 |
| 20260506175320 | 16 | 79 | 0.0 | 3.2 | 0.00 | 0.00 | 0.48 | 92 | 1005.9 |
| 20260506173820 | 16 | 151 | 0.0 | 4.8 | 0.00 | 0.00 | 0.48 | 92 | 1005.8 |
| 20260506172320 | 16 | 169 | 1.6 | 4.8 | 0.00 | 0.00 | 0.48 | 92 | 1005.9 |
| 20260506170820 | 16 | 226 | 0.0 | 4.8 | 0.00 | 0.00 | 0.48 | 92 | 1005.8 |
| 20260506165320 | 16 | 213 | 1.6 | 4.8 | 0.00 | 0.00 | 0.48 | 93 | 1006.0 |
| 20260506163820 | 15 | 186 | 0.0 | 4.8 | 0.00 | 0.00 | 0.48 | 93 | 1005.9 |
| 20260506162320 | 15 | 344 | 0.0 | 4.8 | 0.00 | 0.00 | 0.46 | 92 | 1006.0 |
| 20260506160820 | 15 | 309 | 1.6 | 4.8 | 0.00 | 0.00 | 0.46 | 90 | 1005.9 |
| 20260506155320 | 15 | 316 | 1.6 | 6.4 | 0.00 | 0.00 | 0.46 | 90 | 1005.8 |
| 20260506153820 | 15 | 268 | 0.0 | 6.4 | 0.00 | 0.00 | 0.46 | 90 | 1005.8 |
| 20260506152320 | 16 | 142 | 3.2 | 8.0 | 0.00 | 0.00 | 0.46 | 90 | 1005.5 |
| 20260506150820 | 15 | 200 | 1.6 | 8.0 | 0.00 | 0.00 | 0.46 | 91 | 1005.5 |
| 20260506145320 | 15 | 192 | 4.8 | 8.0 | 0.00 | 0.00 | 0.46 | 92 | 1005.3 |
| 20260506143820 | 15 | 136 | 0.0 | 3.2 | 0.00 | 0.00 | 0.46 | 94 | 1005.1 |
| 20260506142320 | 14 | 172 | 0.0 | 3.2 | 0.00 | 0.00 | 0.46 | 94 | 1005.4 |
| 20260506140820 | 14 | 214 | 0.0 | 4.8 | 0.00 | 0.00 | 0.46 | 94 | 1005.5 |
| 20260506135320 | 13 | 207 | 1.6 | 6.4 | 0.00 | 0.00 | 0.43 | 94 | 1005.8 |